Total_Precipitation_Accumulation
0.00 0.00 0.00 0.00 0.01 0.07 0.10 0.16 0.48 1.66 2.39 1.72 1.83 0.82 0.27 0.28 0.14 0.15 0.17 0.06 0.00 0.01 0.03 0.01 0.00 0.01 0.00 0.00 0.00 0.03 0.05 0.04 0.03 0.01 0.00 0.01 0.02 0.01 0.00 0.01 0.03 0.02 0.00 0.02
0.00 0.00 0.00 0.01 0.04 0.02 0.02 0.08 0.30 1.43 2.24 1.63 1.77 1.36 0.56 0.31 0.34 0.09 0.23 0.13 0.07 0.05 0.04 0.00 0.00 0.00 0.00 0.00 0.01 0.04 0.23 0.08 0.03 0.03 0.01 0.01 0.01 0.01 0.01 0.02 0.05 0.04 0.03 0.05
0.00 0.00 0.00 0.02 0.04 0.01 0.00 0.01 0.14 0.73 0.77 0.98 1.03 1.34 1.11 0.59 0.41 0.13 0.14 0.16 0.15 0.17 0.03 0.03 0.00 0.01 0.00 0.00 0.00 0.02 0.11 0.15 0.05 0.03 0.01 0.03 0.16 0.16 0.18 0.08 0.06 0.04 0.02 0.02
0.00 0.00 0.00 0.00 0.01 0.00 0.01 0.03 0.10 0.53 0.69 1.63 0.91 1.06 0.85 0.63 0.51 0.11 0.02 0.02 0.10 0.31 0.05 0.05 0.02 0.01 0.01 0.00 0.03 0.01 0.11 0.16 0.08 0.05 0.06 0.05 0.08 0.14 0.18 0.08 0.05 0.02 0.01 0.00
0.00 0.00 0.00 0.00 0.00 0.00 0.01 0.04 0.09 0.45 0.26 0.60 0.58 0.95 0.82 0.40 0.31 0.04 0.02 0.00 0.01 0.08 0.04 0.06 0.14 0.05 0.02 0.00 0.00 0.00 0.07 0.20 0.15 0.24 0.23 0.07 0.06 0.05 0.08 0.06 0.09 0.07 0.04 0.01
0.00 0.00 0.00 0.00 0.00 0.00 0.00 0.03 0.06 0.05 0.09 0.13 0.24 0.60 0.31 0.13 0.00 0.00 0.01 0.07 0.03 0.00 0.02 0.05 0.12 0.06 0.08 0.03 0.00 0.00 0.01 0.13 0.08 0.15 0.29 0.32 0.22 0.11 0.14 0.13 0.12 0.03 0.02 0.00
0.00 0.00 0.00 0.00 0.00 0.03 0.00 0.01 0.03 0.03 0.02 0.02 0.01 0.13 0.04 0.14 0.10 0.00 0.00 0.05 0.04 0.09 0.05 0.02 0.10 0.40 0.11 0.02 0.10 0.01 0.00 0.02 0.03 0.09 0.12 0.31 0.41 0.33 0.25 0.12 0.04 0.05 0.01 0.01
0.00 0.00 0.00 0.00 0.00 0.01 0.00 0.00 0.00 0.03 0.03 0.00 0.01 0.12 0.12 0.02 0.01 0.00 0.00 0.00 0.02 0.02 0.05 0.01 0.01 0.33 0.34 0.11 0.16 0.07 0.00 0.00 0.01 0.05 0.12 0.21 0.31 0.23 0.19 0.10 0.09 0.02 0.02 0.05
0.00 0.00 0.00 0.00 0.00 0.00 0.00 0.00 0.01 0.01 0.01 0.00 0.02 0.19 0.18 0.02 0.01 0.07 0.08 0.03 0.00 0.01 0.00 0.00 0.02 0.06 0.12 0.12 0.21 0.07 0.03 0.00 0.01 0.02 0.09 0.13 0.12 0.24 0.28 0.25 0.18 0.16 0.05 0.07
0.00 0.00 0.00 0.00 0.00 0.00 0.01 0.01 0.01 0.01 0.01 0.00 0.02 0.10 0.20 0.23 0.35 0.28 0.10 0.08 0.01 0.00 0.00 0.00 0.01 0.04 0.12 0.16 0.05 0.13 0.07 0.02 0.01 0.03 0.03 0.03 0.05 0.08 0.12 0.19 0.16 0.15 0.13 0.06
0.00 0.00 0.01 0.00 0.00 0.01 0.01 0.01 0.00 0.00 0.00 0.00 0.03 0.07 0.03 0.16 0.16 0.29 0.22 0.12 0.13 0.07 0.01 0.01 0.00 0.03 0.08 0.37 0.32 0.22 0.22 0.07 0.01 0.01 0.02 0.03 0.05 0.10 0.14 0.17 0.19 0.23 0.19 0.11
0.00 0.00 0.00 0.01 0.01 0.02 0.01 0.00 0.00 0.00 0.00 0.00 0.00 0.03 0.01 0.28 0.44 0.39 0.17 0.12 0.09 0.08 0.06 0.05 0.01 0.01 0.06 0.59 1.23 0.63 0.25 0.16 0.04 0.01 0.01 0.02 0.07 0.13 0.18 0.29 0.35 0.32 0.39 0.28
0.00 0.00 0.00 0.01 0.01 0.02 0.02 0.00 0.00 0.00 0.00 0.00 0.00 0.00 0.02 0.03 0.04 0.07 0.03 0.03 0.06 0.12 0.13 0.07 0.03 0.02 0.08 0.55 1.78 2.11 0.76 0.21 0.15 0.09 0.05 0.03 0.03 0.06 0.10 0.21 0.41 0.34 0.39 0.32
0.00 0.00 0.00 0.03 0.04 0.03 0.00 0.00 0.00 0.00 0.00 0.00 0.00 0.03 0.08 0.03 0.04 0.04 0.07 0.07 0.06 0.13 0.21 0.18 0.18 0.13 0.20 0.38 0.64 0.58 1.19 0.51 0.32 0.36 0.17 0.12 0.03 0.01 0.01 0.12 0.28 0.26 0.50 0.37
0.01 0.00 0.00 0.01 0.02 0.04 0.01 0.00 0.00 0.00 0.00 0.00 0.00 0.03 0.04 0.03 0.08 0.18 0.25 0.35 0.28 0.16 0.11 0.18 0.25 0.32 0.30 0.39 0.34 0.15 0.33 0.67 0.59 0.95 1.21 0.72 0.42 0.25 0.11 0.08 0.15 0.29 0.25 0.28
0.00 0.00 0.00 0.00 0.01 0.04 0.01 0.00 0.00 0.00 0.00 0.00 0.00 0.01 0.03 0.19 0.60 0.85 0.99 1.43 1.38 1.17 0.41 0.33 0.43 0.56 0.57 0.48 0.37 0.37 0.43 0.62 1.07 1.12 1.25 0.88 0.63 0.52 0.44 0.29 0.22 0.19 0.22 0.34
0.00 0.00 0.00 0.00 0.00 0.02 0.02 0.00 0.00 0.02 0.03 0.06 0.06 0.05 0.02 0.07 0.31 0.19 0.13 0.26 0.45 0.69 1.52 1.23 0.80 0.71 0.61 0.55 0.57 0.65 0.88 0.86 1.27 1.12 0.85 0.83 0.76 0.70 0.62 0.59 0.47 0.41 0.36 0.31
0.00 0.00 0.00 0.00 0.00 0.01 0.01 0.01 0.01 0.00 0.05 0.06 0.05 0.05 0.14 0.20 0.26 0.12 0.09 0.19 0.29 0.24 0.70 1.81 1.88 1.10 1.08 1.05 0.97 0.75 0.71 0.71 0.88 1.28 1.22 1.20 0.98 0.83 0.79 0.89 0.89 1.03 1.08 1.00
0.00 0.00 0.00 0.00 0.00 0.01 0.04 0.02 0.00 0.00 0.02 0.04 0.06 0.07 0.31 0.75 0.46 0.22 0.13 0.06 0.05 0.16 0.23 0.31 1.06 1.38 2.61 2.08 1.60 1.13 0.74 0.64 0.61 0.61 0.89 1.13 1.23 1.03 0.76 0.68 0.61 0.68 0.76 0.71
0.00 0.00 0.00 0.00 0.00 0.03 0.03 0.02 0.00 0.00 0.03 0.01 0.02 0.03 0.05 0.37 0.43 0.38 0.14 0.06 0.10 0.12 0.14 0.09 0.13 0.16 0.30 0.49 0.68 0.77 0.90 0.92 0.81 0.82 0.70 0.56 0.78 0.82 0.70 0.75 0.84 0.70 0.71 0.67
0.00 0.00 0.00 0.00 0.00 0.01 0.01 0.00 0.00 0.01 0.05 0.02 0.08 0.08 0.05 0.10 0.29 0.42 0.30 0.12 0.13 0.07 0.06 0.06 0.04 0.08 0.09 0.15 0.20 0.17 0.27 0.29 0.33 0.43 0.57 0.53 0.38 0.46 0.40 0.56 0.72 0.65 0.57 0.56
0.00 0.00 0.00 0.00 0.01 0.04 0.01 0.00 0.00 0.04 0.02 0.03 0.05 0.05 0.15 0.24 0.10 0.20 0.21 0.16 0.05 0.04 0.03 0.04 0.04 0.06 0.08 0.13 0.17 0.17 0.16 0.16 0.12 0.17 0.12 0.12 0.15 0.26 0.13 0.12 0.22 0.39 0.46 0.56
0.00 0.00 0.00 0.00 0.02 0.01 0.00 0.00 0.02 0.01 0.01 0.02 0.01 0.04 0.13 0.14 0.08 0.15 0.19 0.16 0.06 0.09 0.07 0.04 0.04 0.05 0.07 0.08 0.12 0.13 0.15 0.11 0.05 0.05 0.05 0.06 0.05 0.03 0.03 0.04 0.03 0.03 0.07 0.15
0.00 0.01 0.00 0.01 0.00 0.02 0.04 0.08 0.02 0.00 0.00 0.00 0.03 0.06 0.14 0.17 0.08 0.13 0.16 0.17 0.16 0.06 0.01 0.00 0.01 0.02 0.03 0.03 0.05 0.05 0.05 0.07 0.06 0.02 0.00 0.00 0.00 0.00 0.00 0.01 0.00 0.00 0.01 0.01
0.00 0.13 0.04 0.00 0.01 0.10 0.06 0.16 0.36 0.16 0.00 0.01 0.06 0.11 0.08 0.07 0.04 0.10 0.10 0.10 0.07 0.06 0.03 0.01 0.01 0.01 0.01 0.01 0.01 0.01 0.02 0.01 0.02 0.01 0.01 0.00 0.00 0.00 0.00 0.00 0.01 0.00 0.00 0.00
0.00 0.00 0.00 0.03 0.09 0.14 0.06 0.01 0.03 0.09 0.04 0.04 0.06 0.07 0.04 0.08 0.04 0.08 0.07 0.22 0.25 0.08 0.02 0.01 0.01 0.00 0.00 0.00 0.00 0.00 0.00 0.01 0.02 0.01 0.01 0.00 0.00 0.00 0.00 0.00 0.02 0.04 0.03 0.03